ISS DEB (51279 NORAD) Tracking and Keplerian Element Data

This shows tracking and keplerian element data for the satellite.

Feedback or suggestion? Click here.




ElementValue
Catalog51279
NameISS DEB
Epoch Orbit1332
Epoch Day103.49657575
Epoch Year2022
RAAN287.7554
Inclination51.6148
Eccentricity0.0012274
Argument of Perigee288.1071
Mean Anonmoly71.8616
Mean Motion16.33748315
Decay Rate0.14372664
L11 51279U 98067TA 22103.49657575 .14372664 12289-4 20504-2 0 9992
L22 51279 51.6148 287.7554 0012274 288.1071 71.8616 16.33748315 13321



Live tracking and technical data element details for ISS DEB (NORAD 51279). ISS DEB can be tracked NOW for your location showing map with azimuth and elevation plus other details from your city location.







IsCatalogInMostPopularTable: catalog: 51279, numindb: 291
Update: records affected: 1



GetName: 51279 ISS DEB

Hit Count: updated at: Mon, 17 Nov 2025 07:35:09 GMT